Notices

What's New in latest Release from April 7th, 2021:

- Updated Glossary, including Speed of Maximum Gust, and Total Hourly Precipitation

- Updated national and regional climate services offices contacts and prices information

- Addition of station inventory lists for 1981-2010, 1971-2000, and 1961-1990 Normals.

If you haven't already, please take our survey and provide feedback about our website: https://eccc.sondage-survey.ca/f/LanguageSelection.aspx?s=442ca660-fcf1-47c0-95a9-59707d6fd709

Hourly Data Report for October 25, 2019

SAINT JOHN A
NEW BRUNSWICK
Current Station Operator: NAVCAN

45°18'58.000" N
65°53'24.000" W
108.80 m
8104901
71609
YSJ

Download Data

Hourly Data (October 2019)
Hourly Data Report for October 25, 2019
TIME
LST
Temp Definition
°C
Dew Point Definition
°C
Rel Hum Definition
%
Precip. Amount Definition
mm

Wind Dir Definition
10's deg

Wind Spd Definition
km/h
Visibility Definition
km
Stn Press Definition
kPa
Hmdx Definition


Wind Chill Definition


Weather Definition


00:00 9.6 8.0 89   23 10 24.1 100.82     LegendNANA
01:00 9.7 6.5 81   24 7 24.1 100.82     LegendNANA
02:00 6.8 5.2 89   22 8 24.1 100.86     Mainly Clear
03:00 8.7 5.3 79   29 10 24.1 100.86     LegendNANA
04:00 8.4 5.1 80   32 10 24.1 100.87     LegendNANA
05:00 8.6 5.3 80   33 10 24.1 100.90     Mostly Cloudy
06:00 8.7 4.8 77   33 22 24.1 100.92     LegendNANA
07:00 8.2 4.7 78   33 14 24.1 100.98     LegendNANA
08:00 8.2 4.0 75   30 7 24.1 101.05     Mostly Cloudy
09:00 9.6 3.2 64   29 14 24.1 101.09     LegendNANA
10:00 10.1 2.5 59   30 18 24.1 101.09     LegendNANA
11:00 10.9 1.9 54   33 23 24.1 101.07     Cloudy
12:00 10.8 0.9 50   32 20 24.1 101.05     LegendNANA
13:00 11.1 1.1 50   30 16 24.1 100.98     LegendNANA
14:00 11.3 0.8 48   27 13 24.1 100.92     Cloudy
15:00 11.2 0.1 46   28 17 24.1 100.92     LegendNANA
16:00 10.9 0.8 50   29 12 24.1 100.89     LegendNANA
17:00 9.7 1.0 54   30 8 24.1 100.87     Cloudy
18:00 8.7 1.5 61   27 6 24.1 100.88     LegendNANA
19:00 8.2 1.8 64   28 5 24.1 100.89     LegendNANA
20:00 7.6 2.2 68   28 4 24.1 100.90     Mostly Cloudy
21:00 6.2 3.3 82   36 2 24.1 100.86     LegendNANA
22:00 5.5 3.7 89   20 5 24.1 100.89     LegendNANA
23:00 5.2 3.7 90   36 3 24.1 100.88     Cloudy

Notes on Data Quality.

Legend

  • E = Estimated
  • M = Missing
  • NA = Not Available*
  • [empty] = Indicates an unobserved value
Date modified: